Location: LDNL
(36.4545°S, 141.6685°E)
Time: 09:11:57
(UTC+11:00)

Courier 1B - Pass Details

Date: 06 February 2023
Orbit: 962 x 1209 km, 28.3° (Epoch: 21 March)

Event Time Altitude Azimuth Distance (km) Brightness Sun altitude
Exits shadow 05:11:57 29° 311° (NW) 2,064 8.6 -18.9°
Maximum altitude 05:14:23 34° 343° (NNW) 1,863 8.5 -18.5°
Drops below altitude 10° 05:21:18 10° 45° (NE) 3,139 10.3 -17.4°
Sets 05:24:25 0° 54° (NE) 4,086 11.0 -16.8°
